CEB491 RPVB-RPLL

Flight info

Callsign CEB491
Flight time 0h 53m
Altitude 32000
Route GALIA2A GALIA TR8 KLO TR19 MINOR B473 LAIYA LAIYA7P
Aircraft A20N/M-SDE2E3FGHIJ1RWXY/LB1

Departure

Time 2026-04-16 13:33
Airport Bacolod-Silay International Airport (RPVB)

Arrival

Time 2026-04-16 14:26
Airport Ninoy Aquino International Airport (RPLL)
Time Latitude Longitude Altitude Speed Heading
2026-04-16 12:53 10.77592 123.01530 36 ft 0 kts 303°
2026-04-16 13:23 10.77590 123.01534 36 ft 2 kts 300°
2026-04-16 13:23 10.77583 123.01547 36 ft 2 kts 302°
2026-04-16 13:23 10.77575 123.01560 36 ft 2 kts 301°
2026-04-16 13:23 10.77567 123.01574 36 ft 2 kts 297°
2026-04-16 13:24 10.77565 123.01588 36 ft 2 kts 253°
2026-04-16 13:24 10.77573 123.01601 36 ft 2 kts 216°
2026-04-16 13:24 10.77587 123.01608 36 ft 2 kts 209°
2026-04-16 13:24 10.77595 123.01614 36 ft 1 kts 212°
2026-04-16 13:25 10.77596 123.01614 36 ft 0 kts 212°
2026-04-16 13:28 10.77586 123.01608 36 ft 3 kts 212°
2026-04-16 13:28 10.77547 123.01585 35 ft 8 kts 210°
2026-04-16 13:29 10.77479 123.01545 35 ft 12 kts 210°
2026-04-16 13:29 10.77399 123.01507 35 ft 11 kts 180°
2026-04-16 13:29 10.77339 123.01556 35 ft 12 kts 118°
2026-04-16 13:29 10.77296 123.01633 36 ft 12 kts 122°
2026-04-16 13:30 10.77221 123.01653 36 ft 13 kts 211°
2026-04-16 13:30 10.77132 123.01601 36 ft 16 kts 210°
2026-04-16 13:30 10.77028 123.01542 36 ft 18 kts 208°
2026-04-16 13:30 10.76954 123.01486 35 ft 11 kts 242°
2026-04-16 13:31 10.76912 123.01437 35 ft 6 kts 182°
2026-04-16 13:31 10.76892 123.01465 36 ft 4 kts 63°
2026-04-16 13:31 10.76906 123.01474 36 ft 0 kts 27°
2026-04-16 13:32 10.77006 123.01530 36 ft 53 kts 30°
2026-04-16 13:32 10.77571 123.01858 37 ft 129 kts 30°
2026-04-16 13:32 10.78461 123.02374 459 ft 150 kts 30°
2026-04-16 13:33 10.79357 123.02884 1220 ft 150 kts 30°
2026-04-16 13:33 10.80235 123.03391 1988 ft 148 kts 31°
2026-04-16 13:33 10.81124 123.03911 2595 ft 148 kts 31°
2026-04-16 13:33 10.82011 123.04429 3172 ft 150 kts 32°
2026-04-16 13:34 10.82932 123.04969 3660 ft 159 kts 32°
2026-04-16 13:34 10.83950 123.05567 4047 ft 177 kts 32°
2026-04-16 13:34 10.85062 123.06207 4474 ft 194 kts 27°
2026-04-16 13:34 10.86460 123.06450 4875 ft 217 kts 353°
2026-04-16 13:35 10.87898 123.05744 5195 ft 248 kts 315°
2026-04-16 13:35 10.88793 123.04195 5677 ft 269 kts 293°
2026-04-16 13:35 10.89539 123.02376 6244 ft 285 kts 294°
2026-04-16 13:35 10.90334 123.00510 7000 ft 291 kts 295°
2026-04-16 13:36 10.91141 122.98615 7826 ft 294 kts 295°
2026-04-16 13:36 10.91946 122.96719 8602 ft 298 kts 295°
2026-04-16 13:36 10.92769 122.94764 9330 ft 302 kts 295°
2026-04-16 13:36 10.93584 122.92810 10028 ft 306 kts 295°
2026-04-16 13:37 10.94519 122.90848 10581 ft 313 kts 307°
2026-04-16 13:37 10.96090 122.89249 10915 ft 325 kts 326°
2026-04-16 13:37 10.98002 122.87941 11432 ft 333 kts 329°
2026-04-16 13:37 10.99962 122.86663 12082 ft 337 kts 329°
2026-04-16 13:38 11.01924 122.85350 12732 ft 340 kts 329°
2026-04-16 13:38 11.03885 122.84000 13366 ft 343 kts 328°
2026-04-16 13:38 11.05853 122.82621 13999 ft 345 kts 328°
2026-04-16 13:38 11.07827 122.81222 14613 ft 348 kts 327°
2026-04-16 13:39 11.09804 122.79812 15212 ft 351 kts 327°
2026-04-16 13:39 11.11839 122.78355 15808 ft 354 kts 327°
2026-04-16 13:39 11.13863 122.76904 16389 ft 357 kts 327°
2026-04-16 13:39 11.15904 122.75440 16954 ft 360 kts 327°
2026-04-16 13:40 11.17954 122.73967 17499 ft 363 kts 327°
2026-04-16 13:40 11.20034 122.72473 18024 ft 366 kts 327°
2026-04-16 13:40 11.22102 122.70987 18532 ft 369 kts 327°
2026-04-16 13:40 11.24221 122.69465 19030 ft 373 kts 327°
2026-04-16 13:41 11.26347 122.67934 19525 ft 376 kts 327°
2026-04-16 13:41 11.28487 122.66396 20007 ft 379 kts 326°
2026-04-16 13:41 11.30650 122.64844 20485 ft 382 kts 327°
2026-04-16 13:41 11.32851 122.63291 20956 ft 385 kts 327°
2026-04-16 13:42 11.35073 122.61736 21414 ft 388 kts 327°
2026-04-16 13:42 11.37294 122.60181 21860 ft 391 kts 327°
2026-04-16 13:42 11.39548 122.58601 22309 ft 394 kts 327°
2026-04-16 13:42 11.41841 122.56991 22772 ft 398 kts 326°
2026-04-16 13:43 11.44131 122.55381 23236 ft 400 kts 326°
2026-04-16 13:43 11.46418 122.53772 23699 ft 403 kts 326°
2026-04-16 13:43 11.48730 122.52147 24161 ft 405 kts 326°
2026-04-16 13:43 11.51052 122.50513 24618 ft 407 kts 326°
2026-04-16 13:44 11.53392 122.48866 25069 ft 409 kts 326°
2026-04-16 13:44 11.55735 122.47218 25507 ft 412 kts 326°
2026-04-16 13:44 11.58099 122.45554 25936 ft 414 kts 326°
2026-04-16 13:44 11.60481 122.43876 26362 ft 416 kts 326°
2026-04-16 13:45 11.62866 122.42197 26773 ft 418 kts 326°
2026-04-16 13:45 11.65278 122.40505 27177 ft 420 kts 327°
2026-04-16 13:45 11.67825 122.39031 27562 ft 422 kts 335°
2026-04-16 13:45 11.70572 122.37919 27931 ft 424 kts 343°
2026-04-16 13:46 11.73439 122.37166 28286 ft 426 kts 348°
2026-04-16 13:46 11.76355 122.36530 28631 ft 428 kts 348°
2026-04-16 13:46 11.79281 122.35912 29060 ft 427 kts 348°
2026-04-16 13:46 11.82188 122.35297 29561 ft 425 kts 348°
2026-04-16 13:47 11.85093 122.34677 30047 ft 423 kts 348°
2026-04-16 13:47 11.87952 122.34062 30467 ft 422 kts 348°
2026-04-16 13:47 11.90829 122.33441 30808 ft 423 kts 348°
2026-04-16 13:47 11.93736 122.32812 31114 ft 425 kts 348°
2026-04-16 13:48 11.96631 122.32184 31412 ft 426 kts 347°
2026-04-16 13:48 11.99554 122.31549 31714 ft 427 kts 347°
2026-04-16 13:48 12.02468 122.30917 31906 ft 429 kts 347°
2026-04-16 13:49 12.08349 122.29639 31914 ft 430 kts 347°
2026-04-16 13:49 12.14185 122.28371 31914 ft 430 kts 347°
2026-04-16 13:50 12.20061 122.27093 31914 ft 430 kts 347°
2026-04-16 13:50 12.25919 122.25818 31914 ft 429 kts 347°
2026-04-16 13:51 12.31745 122.24372 31915 ft 429 kts 342°
2026-04-16 13:51 12.37356 122.22225 31914 ft 429 kts 335°
2026-04-16 13:52 12.42653 122.19363 31915 ft 429 kts 328°
2026-04-16 13:52 12.47623 122.15985 31913 ft 429 kts 326°
2026-04-16 13:53 12.52587 122.12524 31915 ft 429 kts 326°
2026-04-16 13:53 12.57527 122.09084 31913 ft 429 kts 326°
2026-04-16 13:54 12.62462 122.05650 31911 ft 429 kts 326°
2026-04-16 13:54 12.67396 122.02218 31906 ft 429 kts 326°
2026-04-16 13:55 12.72334 121.98782 31906 ft 429 kts 326°
2026-04-16 13:55 12.77277 121.95340 31897 ft 429 kts 326°
2026-04-16 13:56 12.82208 121.91904 31898 ft 429 kts 326°
2026-04-16 13:56 12.87147 121.88461 31896 ft 429 kts 326°
2026-04-16 13:57 12.92069 121.85030 31902 ft 429 kts 326°
2026-04-16 13:57 12.97027 121.81571 31909 ft 429 kts 326°
2026-04-16 13:58 13.04423 121.76408 31914 ft 428 kts 326°
2026-04-16 13:58 13.09340 121.72974 31923 ft 428 kts 326°
2026-04-16 13:59 13.14297 121.69508 31925 ft 428 kts 326°
2026-04-16 13:59 13.19208 121.66075 31931 ft 427 kts 326°
2026-04-16 14:00 13.24141 121.62624 31933 ft 428 kts 326°
2026-04-16 14:00 13.29040 121.59196 31692 ft 428 kts 326°
2026-04-16 14:01 13.31504 121.57470 31351 ft 426 kts 326°
2026-04-16 14:01 13.33956 121.55753 30898 ft 423 kts 326°
2026-04-16 14:01 13.36387 121.54049 30338 ft 422 kts 326°
2026-04-16 14:01 13.38810 121.52352 29723 ft 423 kts 326°
2026-04-16 14:02 13.41225 121.50659 29080 ft 424 kts 326°
2026-04-16 14:02 13.43675 121.48941 28433 ft 425 kts 326°
2026-04-16 14:02 13.46106 121.47236 27977 ft 421 kts 326°
2026-04-16 14:02 13.48500 121.45556 27525 ft 418 kts 326°
2026-04-16 14:03 13.50895 121.43874 27156 ft 411 kts 326°
2026-04-16 14:03 13.53228 121.42237 26976 ft 400 kts 326°
2026-04-16 14:03 13.55530 121.40676 26845 ft 387 kts 330°
2026-04-16 14:03 13.57903 121.39481 26688 ft 377 kts 339°
2026-04-16 14:04 13.60396 121.38655 26238 ft 375 kts 346°
2026-04-16 14:04 13.62944 121.38035 25800 ft 373 kts 347°
2026-04-16 14:04 13.65449 121.37457 25382 ft 371 kts 348°
2026-04-16 14:04 13.67973 121.36876 24965 ft 369 kts 348°
2026-04-16 14:05 13.70466 121.36298 24557 ft 367 kts 348°
2026-04-16 14:05 13.72948 121.35717 24196 ft 363 kts 348°
2026-04-16 14:05 13.75412 121.35137 23842 ft 359 kts 348°
2026-04-16 14:05 13.77862 121.34560 23490 ft 356 kts 348°
2026-04-16 14:06 13.80256 121.33996 23141 ft 353 kts 348°
2026-04-16 14:06 13.82654 121.33428 22789 ft 350 kts 348°
2026-04-16 14:06 13.84998 121.32874 22439 ft 347 kts 348°
2026-04-16 14:06 13.87359 121.32316 22085 ft 345 kts 348°
2026-04-16 14:07 13.89701 121.31762 21729 ft 343 kts 348°
2026-04-16 14:07 13.92006 121.31217 21370 ft 341 kts 348°
2026-04-16 14:07 13.94334 121.30667 21006 ft 339 kts 348°
2026-04-16 14:07 13.96613 121.30128 20643 ft 337 kts 348°
2026-04-16 14:08 13.98908 121.29585 20277 ft 335 kts 348°
2026-04-16 14:08 14.01192 121.29044 19914 ft 333 kts 348°
2026-04-16 14:08 14.03463 121.28573 19541 ft 331 kts 354°
2026-04-16 14:08 14.05744 121.28468 19165 ft 328 kts
2026-04-16 14:09 14.08026 121.28731 18772 ft 326 kts 10°
2026-04-16 14:09 14.10263 121.29105 18390 ft 325 kts 11°
2026-04-16 14:09 14.12494 121.29492 18007 ft 323 kts 11°
2026-04-16 14:09 14.14731 121.29881 17621 ft 322 kts 11°
2026-04-16 14:10 14.16929 121.30258 17241 ft 321 kts 11°
2026-04-16 14:10 14.19136 121.30635 16854 ft 319 kts 11°
2026-04-16 14:10 14.21316 121.31006 16475 ft 318 kts 11°
2026-04-16 14:10 14.23508 121.31378 16091 ft 316 kts 11°
2026-04-16 14:11 14.25673 121.31746 15703 ft 314 kts 11°
2026-04-16 14:11 14.27841 121.32114 15327 ft 312 kts 11°
2026-04-16 14:11 14.29979 121.32476 14958 ft 311 kts 11°
2026-04-16 14:11 14.32100 121.32835 14592 ft 309 kts 11°
2026-04-16 14:12 14.34230 121.33196 14224 ft 307 kts 11°
2026-04-16 14:12 14.36332 121.33552 13991 ft 300 kts 11°
2026-04-16 14:12 14.38380 121.33836 13895 ft 290 kts
2026-04-16 14:12 14.40352 121.33482 13697 ft 287 kts 340°
2026-04-16 14:13 14.42114 121.32546 13352 ft 288 kts 333°
2026-04-16 14:13 14.43847 121.31499 13014 ft 287 kts 332°
2026-04-16 14:13 14.45577 121.30454 12716 ft 285 kts 332°
2026-04-16 14:13 14.47279 121.29489 12540 ft 275 kts 342°
2026-04-16 14:14 14.49097 121.29275 12403 ft 256 kts 17°
2026-04-16 14:14 14.50646 121.30119 12147 ft 252 kts 47°
2026-04-16 14:14 14.51609 121.31580 11838 ft 249 kts 62°
2026-04-16 14:14 14.52431 121.33160 11537 ft 247 kts 61°
2026-04-16 14:15 14.53260 121.34694 11234 ft 246 kts 60°
2026-04-16 14:15 14.54107 121.36231 10929 ft 245 kts 60°
2026-04-16 14:15 14.54952 121.37753 10631 ft 243 kts 60°
2026-04-16 14:15 14.55794 121.39263 10333 ft 241 kts 60°
2026-04-16 14:16 14.56620 121.40743 10044 ft 239 kts 60°
2026-04-16 14:16 14.57471 121.42220 9739 ft 238 kts 54°
2026-04-16 14:16 14.58765 121.43275 9399 ft 241 kts 21°
2026-04-16 14:16 14.60433 121.43428 9084 ft 246 kts 351°
2026-04-16 14:17 14.62009 121.42748 8796 ft 249 kts 334°
2026-04-16 14:17 14.63542 121.41891 8505 ft 248 kts 335°
2026-04-16 14:17 14.65051 121.41064 8222 ft 246 kts 335°
2026-04-16 14:17 14.66582 121.40233 7938 ft 245 kts 334°
2026-04-16 14:18 14.68085 121.39406 7659 ft 243 kts 329°
2026-04-16 14:18 14.69243 121.38165 7349 ft 248 kts 298°
2026-04-16 14:18 14.69649 121.36433 6997 ft 252 kts 268°
2026-04-16 14:18 14.69173 121.34688 6614 ft 255 kts 243°
2026-04-16 14:19 14.68306 121.33109 6264 ft 256 kts 239°
2026-04-16 14:19 14.67373 121.31540 6023 ft 252 kts 239°
2026-04-16 14:19 14.66470 121.30010 5729 ft 250 kts 240°
2026-04-16 14:19 14.65579 121.28464 5405 ft 250 kts 240°
2026-04-16 14:20 14.64716 121.26936 5085 ft 246 kts 240°
2026-04-16 14:20 14.63873 121.25422 4766 ft 237 kts 241°
2026-04-16 14:20 14.63064 121.23960 4471 ft 234 kts 241°
2026-04-16 14:20 14.62261 121.22505 4163 ft 233 kts 240°
2026-04-16 14:21 14.61458 121.21052 3860 ft 230 kts 240°
2026-04-16 14:21 14.60678 121.19640 3562 ft 223 kts 240°
2026-04-16 14:21 14.59924 121.18278 3274 ft 214 kts 240°
2026-04-16 14:21 14.59199 121.16967 3074 ft 205 kts 240°
2026-04-16 14:22 14.58495 121.15698 2820 ft 200 kts 240°
2026-04-16 14:22 14.57810 121.14465 2532 ft 196 kts 240°
2026-04-16 14:22 14.57139 121.13257 2260 ft 193 kts 240°
2026-04-16 14:22 14.56494 121.12096 1996 ft 181 kts 240°
2026-04-16 14:23 14.55887 121.11004 1783 ft 166 kts 240°
2026-04-16 14:23 14.55334 121.10009 1551 ft 153 kts 241°
2026-04-16 14:23 14.54830 121.09100 1355 ft 143 kts 240°
2026-04-16 14:23 14.54330 121.08199 1198 ft 142 kts 239°
2026-04-16 14:24 14.53840 121.07316 1026 ft 141 kts 239°
2026-04-16 14:24 14.53354 121.06440 854 ft 141 kts 239°
2026-04-16 14:24 14.52867 121.05562 677 ft 141 kts 239°
2026-04-16 14:24 14.52382 121.04688 492 ft 141 kts 239°
2026-04-16 14:25 14.51895 121.03803 323 ft 139 kts 239°
2026-04-16 14:25 14.51408 121.02930 140 ft 140 kts 238°
2026-04-16 14:25 14.50943 121.02091 82 ft 122 kts 239°
2026-04-16 14:25 14.50601 121.01484 82 ft 73 kts 240°
2026-04-16 14:26 14.50407 121.01137 82 ft 46 kts 242°
2026-04-16 14:26 14.50301 121.00903 82 ft 26 kts 258°
2026-04-16 14:26 14.50282 121.00761 82 ft 10 kts 269°
2026-04-16 14:26 14.50333 121.00728 82 ft 9 kts 24°
2026-04-16 14:27 14.50374 121.00784 82 ft 9 kts 62°
2026-04-16 14:27 14.50404 121.00843 82 ft 9 kts 61°
2026-04-16 14:27 14.50438 121.00905 82 ft 9 kts 60°
2026-04-16 14:27 14.50475 121.00970 82 ft 11 kts 60°
2026-04-16 14:28 14.50518 121.01046 82 ft 13 kts 60°
2026-04-16 14:28 14.50570 121.01141 82 ft 16 kts 60°
2026-04-16 14:28 14.50629 121.01247 82 ft 17 kts 60°
2026-04-16 14:28 14.50689 121.01355 82 ft 17 kts 60°
2026-04-16 14:29 14.50749 121.01464 82 ft 17 kts 60°
2026-04-16 14:29 14.50811 121.01574 82 ft 17 kts 60°
2026-04-16 14:29 14.50872 121.01683 82 ft 17 kts 60°
2026-04-16 14:29 14.50926 121.01781 82 ft 15 kts 60°
2026-04-16 14:30 14.50979 121.01877 82 ft 14 kts 60°
2026-04-16 14:30 14.51034 121.01919 82 ft 10 kts 341°
2026-04-16 14:30 14.51090 121.01864 82 ft 11 kts 315°
2026-04-16 14:30 14.51149 121.01803 82 ft 12 kts 315°
2026-04-16 14:31 14.51221 121.01728 82 ft 17 kts 315°
2026-04-16 14:31 14.51319 121.01627 82 ft 20 kts 315°
2026-04-16 14:31 14.51419 121.01524 82 ft 20 kts 314°
2026-04-16 14:31 14.51519 121.01421 82 ft 19 kts 314°
2026-04-16 14:32 14.51611 121.01324 82 ft 18 kts 315°
2026-04-16 14:32 14.51700 121.01234 82 ft 17 kts 315°
2026-04-16 14:32 14.51783 121.01148 82 ft 16 kts 315°
2026-04-16 14:32 14.51860 121.01067 82 ft 15 kts 314°
2026-04-16 14:33 14.51935 121.00990 82 ft 14 kts 315°
2026-04-16 14:33 14.52006 121.00916 82 ft 14 kts 315°
2026-04-16 14:33 14.52073 121.00847 82 ft 13 kts 315°
2026-04-16 14:33 14.52138 121.00779 82 ft 12 kts 315°
2026-04-16 14:34 14.52200 121.00765 82 ft 9 kts 39°
2026-04-16 14:34 14.52253 121.00765 82 ft 8 kts 317°
2026-04-16 14:34 14.52297 121.00721 82 ft 8 kts 314°
2026-04-16 14:34 14.52328 121.00691 82 ft 3 kts 342°
2026-04-16 14:35 14.52353 121.00706 82 ft 4 kts 44°
2026-04-16 14:35 14.52375 121.00729 82 ft 2 kts 44°
2026-04-16 14:35 14.52385 121.00738 82 ft 0 kts 44°